Location: Lourdes
(43.1000°N, 0.0500°W)
Time: 05:13:33
(UTC+00:00)

Cosmos 1606 - Pass Details

Date: 30 November 2020
Orbit: 503 x 527 km, 82.5° (Epoch: 24 January)

Event Time Altitude Azimuth Distance (km) Brightness Sun altitude
Rises 17:02:29 0° 188° (S) 2,650 6.8 -6.7°
Reaches altitude 10° 17:04:36 10° 190° (S) 1,766 5.9 -7.1°
Maximum altitude 17:08:29 83° 277° (W) 537 2.8 -7.7°
Drops below altitude 10° 17:12:24 10° 7° (N) 1,776 5.1 -8.4°
Sets 17:14:33 0° 8° (N) 2,667 6.0 -8.7°
